Change the Weather History Date:

Saturday, November 3, 2012

  Actual Average (WSSS) Record (WSSS)
Temperature  
Mean Temperature 80 °F -  
Max Temperature 86 °F 87 °F 91 °F (1999)
Min Temperature 75 °F 75 °F 75 °F (1999)
Cooling Degree Days 16    
Growing Degree Days 30 (Base 50)    
Moisture  
Dew Point 74 °F    
Average Humidity 90    
Maximum Humidity 94    
Minimum Humidity 70    
Precipitation  
Precipitation 0.00 in - - ()
Sea Level Pressure  
Sea Level Pressure 29.80 in    
Wind  
Wind Speed 2 mph ()    
Max Wind Speed 8 mph    
Max Gust Speed -    
Visibility 5.7 miles    
Events Rain , Thunderstorm    
Averages and records for this station are not official NWS values.
T = Trace of Precipitation, MM = Missing Value Source: Averaged Metar Reports

Daily Weather History Graph

Daily Weather History Graph

Search for Another Location

Airport or City:

Trip Planner

Search our weather history database for the weather conditions in past years. The results will help you decide how hot, cold, wet, or windy it might be!

Date:

Astronomy

Nov. 03, 2012 Rise Set
Actual Time 6:47 AM MYT 6:50 PM MYT
Civil Twilight 6:25 AM MYT 7:11 PM MYT
Nautical Twilight 6:00 AM MYT 7:36 PM MYT
Astronomical Twilight 5:36 AM MYT 8:01 PM MYT
Moon 10:24 PM MYT (11/3) 10:04 AM MYT (11/3)
Length of Visible Light 12h 46m
Length of Day
12h 03m
Waning Gibbous, 84% of the Moon is Illuminated
Nov 3
Waning Gibbous
Nov 7
Last Quarter
Nov 14
New
Nov 20
First Quarter
Nov 28
Full

Hourly Weather History & Observations

Time (MYT) Temp. Heat Index Dew Point Humidity Pressure Visibility Wind Dir Wind Speed Gust Speed Precip Events Conditions
12:00 AM 75.2 °F - 73.4 °F 94% 29.80 in 6.2 mi NNE 2.3 mph - N/A   Mostly Cloudy
1:00 AM 75.2 °F - 73.4 °F 94% 29.80 in 6.2 mi NNE 1.2 mph - N/A   Mostly Cloudy
2:00 AM 75.2 °F - 73.4 °F 94% 29.77 in 6.2 mi NNE 2.3 mph - N/A   Mostly Cloudy
3:00 AM 75.2 °F - 73.4 °F 94% 29.77 in 6.2 mi NNE 2.3 mph - N/A   Mostly Cloudy
4:00 AM 75.2 °F - 73.4 °F 94% 29.77 in 6.2 mi NNE 2.3 mph - N/A   Mostly Cloudy
5:00 AM 75.2 °F - 73.4 °F 94% 29.74 in 6.2 mi NNE 2.3 mph - N/A   Mostly Cloudy
6:00 AM 75.2 °F - 73.4 °F 94% 29.77 in 3.7 mi NNE 1.2 mph - N/A   Mostly Cloudy
7:00 AM 75.2 °F - 73.4 °F 94% 29.77 in 6.2 mi NNE 2.3 mph - N/A   Mostly Cloudy
8:00 AM 77.0 °F - 73.4 °F 89% 29.80 in 6.2 mi NNE 2.3 mph - N/A   Mostly Cloudy
9:00 AM 77.0 °F - 75.2 °F 94% 29.83 in 6.2 mi NE 1.2 mph - N/A   Mostly Cloudy
10:00 AM 78.8 °F - 75.2 °F 89% 29.83 in 6.2 mi Calm Calm - N/A   Mostly Cloudy
11:00 AM 80.6 °F 86.2 °F 75.2 °F 84% 29.83 in 6.2 mi ESE 1.2 mph - N/A   Mostly Cloudy
12:00 PM 84.2 °F 94.1 °F 77.0 °F 79% 29.83 in 6.2 mi SSE 4.6 mph - N/A   Mostly Cloudy
1:00 PM 86.0 °F 95.1 °F 75.2 °F 70% 29.80 in 6.2 mi SSE 4.6 mph - N/A   Mostly Cloudy
2:00 PM 86.0 °F 96.9 °F 77.0 °F 74% 29.77 in 6.2 mi SSE 8.1 mph - N/A   Mostly Cloudy
3:00 PM 82.4 °F 90.9 °F 77.0 °F 84% 29.74 in 6.2 mi SSE 6.9 mph - N/A Rain Light Rain Showers
4:00 PM 80.6 °F 87.1 °F 77.0 °F 89% 29.77 in 6.2 mi NNE 3.5 mph - N/A Rain Light Rain
5:00 PM 75.2 °F - 73.4 °F 94% 29.80 in 2.5 mi North 6.9 mph - N/A Rain , Thunderstorm Thunderstorms and Rain
6:00 PM 75.2 °F - 73.4 °F 94% 29.83 in 2.5 mi North 2.3 mph - N/A Rain , Thunderstorm Thunderstorms and Rain
7:00 PM 75.2 °F - 73.4 °F 94% 29.83 in 3.7 mi NNE 2.3 mph - N/A Rain Light Rain
8:00 PM 75.2 °F - 73.4 °F 94% 29.83 in 6.2 mi Calm Calm - N/A Rain Light Rain
9:00 PM 75.2 °F - 73.4 °F 94% 29.83 in 6.2 mi NE 3.5 mph - N/A Rain Light Rain
10:00 PM 75.2 °F - 73.4 °F 94% 29.80 in 6.2 mi NNE 3.5 mph - N/A Rain Light Rain
11:00 PM 75.2 °F - 73.4 °F 94% 29.80 in 6.2 mi NE 5.8 mph - N/A   Mostly Cloudy